This demonstration page uses our WeatherBlox Daily Observations layout. Learn more.

Left ArrowRight Arrow

41.12389, -100.76542

Hourly Observations for December 6, 2017

Temp ( °F °C ) Dew Point ( °F °C ) Humidity (%) Winds ( mph kmh ) Pressure ( in mb ) Visibility ( mi km ) Precip ( " mm )
12:53 am 00:53 Clear 24 -4.4 18 -7.8 77 77 W 3 6 30.27 1025 10 16 0.00 0.00
1:53 am 01:53 Clear 29 -1.7 20 -6.7 69 69 WNW 10 17 30.27 1025 10 16 0.00 0.00
2:53 am 02:53 Clear 23 -5 17 -8.3 78 78 NW 7 11 30.32 1027 10 16 0.00 0.00
3:53 am 03:53 Clear 18 -7.8 15 -9.4 88 88 NNW 5 7 30.33 1027 10 16 0.00 0.00
4:53 am 04:53 Partly Cloudy 17 -8.3 13 -10.6 84 84 NW 5 7 30.35 1028 10 16 0.00 0.00
5:53 am 05:53 Partly Cloudy 17 -8.3 14 -10 88 88 WNW 7 11 30.35 1028 10 16 0.00 0.00
6:53 am 06:53 Cloudy 26 -3.3 20 -6.7 78 78 NW 7 11 30.34 1028 10 16 0.00 0.00
7:53 am 07:53 Clear 21 -6.1 16 -8.9 81 81 NW 6 9 30.36 1028 10 16 0.00 0.00
8:53 am 08:53 Partly Cloudy 27 -2.8 20 -6.7 75 75 WNW 12 19 30.39 1029 10 16 0.00 0.00
9:53 am 09:53 Cloudy 34 1.1 21 -6.1 59 59 WNW 14 22 30.39 1029 10 16 0.00 0.00
10:53 am 10:53 Mostly Cloudy 37 2.8 21 -6.1 52 52 WNW 17 28 30.40 1030 10 16 0.00 0.00
11:53 am 11:53 Cloudy 38 3.3 21 -6.1 51 51 NW 21 33 30.39 1029 10 16 0.00 0.00
12:53 pm 12:53 Windy with Snow Likely 36 2.2 22 -5.6 57 57 NW 23 37 30.38 1029 9 14 0.00 0.03
1:53 pm 13:53 Cloudy 39 3.9 22 -5.6 50 50 NW 20 31 30.35 1028 10 16 0.00 0.03
2:53 pm 14:53 Cloudy 38 3.3 18 -7.8 44 44 NNW 21 33 30.36 1028 10 16 0.00 0.00
3:31 pm 15:31 Windy with Snow Likely 30 -1.1 24 -4.4 79 79 N 22 35 30.45 1031 3 4 0.00 0.03
3:40 pm 15:40 Cloudy with Light Snow 30 -1.1 23 -5 75 75 N 14 22 30.45 1031 7 11 0.00 0.03
3:53 pm 15:53 Cloudy 31 -0.6 23 -5 72 72 N 17 28 30.45 1031 10 16 0.00 0.03
4:53 pm 16:53 Cloudy 28 -2.2 15 -9.4 58 58 NNW 15 24 30.50 1033 10 16 0.00 0.00
5:53 pm 17:53 Mostly Cloudy 23 -5 13 -10.6 65 65 NNW 13 20 30.54 1034 10 16 0.00 0.00
6:53 pm 18:53 Partly Cloudy 19 -7.2 11 -11.7 71 71 NNW 8 13 30.56 1035 10 16 0.00 0.00
7:53 pm 19:53 Clear 18 -7.8 9 -12.8 68 68 NNW 9 15 30.59 1036 10 16 0.00 0.00
8:53 pm 20:53 Clear 14 -10 8 -13.3 77 77 WNW 8 13 30.60 1036 10 16 0.00 0.00
9:53 pm 21:53 Clear 13 -10.6 8 -13.3 81 81 WNW 12 19 30.60 1036 10 16 0.00 0.00
10:53 pm 22:53 Clear 10 -12.2 6 -14.4 84 84 WNW 6 9 30.60 1036 10 16 0.00 0.00
11:53 pm 23:53 Clear 9 -12.8 5 -15 84 84 NW 7 11 30.60 1036 10 16 0.00 0.00

Powered by AerisWeather